Location: Bucquoy
(50.1391°N, 2.7097°E)
Time: 04:01:01
(UTC+00:00)

Cosmos 1674 - Pass Details

Date: 06 May 2021
Orbit: 492 x 517 km, 82.5° (Epoch: 22 June)

Event Time Altitude Azimuth Distance (km) Brightness Sun altitude
Exits shadow 02:56:52 12° 193° (SSW) 1,615 4.7 -11.2°
Maximum altitude 03:00:23 79° 279° (W) 535 2.6 -10.8°
Drops below altitude 10° 03:04:15 10° 8° (N) 1,760 6.2 -10.3°
Sets 03:06:24 0° 10° (N) 2,651 7.2 -10.1°
